Location: Colebrook
(42.0017°N, 73.0973°W)
Time: 11:25:12
(UTC-04:00)

Altair - Visible Passes

Search period start: 25 October 2021 00:00
Search period end: 04 November 2021 00:00
Orbit: 1502 x 1682 km, 47.2° (Epoch: 24 October)

Date Brightness Start Highest point End Pass type
(mag) Time Alt. Az. Time Alt. Az. Time Alt. Az.
25 Oct 9.0 02:24:21 25° E 02:24:21 25° E 02:28:05 10° ENE visible
25 Oct 7.3 04:22:23 72° W 04:23:32 82° NNW 04:33:17 10° ENE visible
25 Oct 7.8 06:20:25 13° WNW 06:29:04 65° N 06:38:54 10° E visible
26 Oct 9.3 02:00:39 18° ENE 02:00:39 18° ENE 02:02:48 10° ENE visible
26 Oct 7.3 03:58:41 83° NNE 03:58:41 83° NNE 04:08:03 10° ENE visible
26 Oct 7.7 05:56:42 20° WNW 06:03:48 64° N 06:13:35 10° E visible
27 Oct 9.6 01:36:55 12° ENE 01:36:55 12° ENE 01:37:30 10° ENE visible
27 Oct 7.7 03:34:57 64° ENE 03:34:57 64° ENE 03:42:48 10° ENE visible
27 Oct 7.7 05:32:58 28° WNW 05:38:32 64° N 05:48:18 10° E visible
28 Oct 8.1 03:11:12 48° ENE 03:11:12 48° ENE 03:17:34 10° ENE visible
28 Oct 7.6 05:09:14 38° WNW 05:13:18 65° N 05:23:00 10° E visible
29 Oct 8.6 02:47:27 35° ENE 02:47:27 35° ENE 02:52:21 10° ENE visible
29 Oct 7.6 04:45:28 50° WNW 04:48:01 65° N 04:57:42 10° ENE visible
29 Oct 7.7 06:44:02 10° WNW 06:53:37 79° NNE 07:03:34 10° ESE visible
30 Oct 9.0 02:23:42 26° ENE 02:23:42 26° ENE 02:27:07 10° ENE visible
30 Oct 7.5 04:21:43 62° NW 04:22:47 66° N 04:32:25 10° ENE visible
30 Oct 7.7 06:19:44 14° WNW 06:28:23 76° NNE 06:38:18 10° ESE visible
31 Oct 9.3 01:59:56 18° ENE 01:59:56 18° ENE 02:01:54 10° ENE visible
31 Oct 7.5 03:57:57 66° N 03:57:57 66° N 04:07:08 10° ENE visible
31 Oct 7.6 05:55:59 20° WNW 06:03:09 74° NNE 06:13:01 10° ESE visible
01 Nov 9.6 01:36:11 12° ENE 01:36:11 12° ENE 01:36:41 10° ENE visible
01 Nov 7.8 03:34:12 56° NE 03:34:12 56° NE 03:41:52 10° ENE visible
01 Nov 7.6 05:32:13 28° WNW 05:37:55 72° NNE 05:47:44 10° E visible
02 Nov 8.3 03:10:28 44° NE 03:10:28 44° NE 03:16:36 10° ENE visible
02 Nov 7.6 05:08:30 38° WNW 05:12:40 70° NNE 05:22:26 10° E visible
03 Nov 8.7 02:46:44 33° ENE 02:46:44 33° ENE 02:51:20 10° ENE visible
03 Nov 7.6 04:44:46 50° NW 04:47:25 69° N 04:57:08 10° E visible
03 Nov 7.7 06:42:59 10° WNW 06:52:25 70° SW 07:02:13 10° SE visible
